DL6MAA-11 Weather Reports


time (UTC)temp
C
wind
direction
speed
KPH
gust
KPH
rain 1hr
cm
rain 24hr
cm
rain mn
cm
humidity
%
barometer
mb
20260906200201 16 67 0.0 0.0 0.00 0.00 0.00 58 1022.1
20260906195647 16 67 0.0 0.0 0.00 0.00 0.00 57 1021.9
20260906195156 16 67 0.0 0.0 0.00 0.00 0.00 57 1021.9
20260906194659 16 67 0.0 0.0 0.00 0.00 0.00 57 1021.9
20260906194159 16 68 0.0 0.0 0.00 0.00 0.00 57 1022.0
20260906193645 16 360 0.0 0.0 0.00 0.00 0.00 56 1022.0
20260906193151 16 68 0.0 0.0 0.00 0.00 0.00 56 1022.0
20260906192656 17 69 0.0 0.0 0.00 0.00 0.00 56 1022.0
20260906192144 17 69 0.0 0.0 0.00 0.00 0.00 55 1022.0
20260906191655 17 69 0.0 0.0 0.00 0.00 0.00 55 1022.0
20260906191140 17 71 0.0 0.0 0.00 0.00 0.00 55 1022.3
20260906190649 17 72 0.0 0.0 0.00 0.00 0.00 55 1022.3
20260906190201 17 71 0.0 0.0 0.00 0.00 0.00 54 1022.3
20260906185648 17 68 0.0 0.0 0.00 0.00 0.00 54 1022.2
20260906185153 17 68 0.0 0.0 0.00 0.00 0.00 53 1022.2
20260906184659 18 68 0.0 0.0 0.00 0.00 0.00 53 1022.2
20260906184148 18 69 0.0 0.0 0.00 0.00 0.00 52 1022.1
20260906183649 18 68 0.0 0.0 0.00 0.00 0.00 52 1022.1
20260906183158 18 69 0.0 0.0 0.00 0.00 0.00 52 1022.1
20260906182643 18 69 0.0 0.0 0.00 0.00 0.00 52 1022.8
20260906182152 18 360 0.0 0.0 0.00 0.00 0.00 52 1022.8
20260906181655 19 67 0.0 0.0 0.00 0.00 0.00 52 1022.8
20260906181140 19 67 0.0 0.0 0.00 0.00 0.00 51 1022.3
20260906180642 19 67 0.0 0.0 0.00 0.00 0.00 51 1022.3
20260906180200 20 67 0.0 0.0 0.00 0.00 0.00 51 1022.3
20260906175648 20 67 0.0 0.0 0.00 0.00 0.00 51 1022.3
20260906175148 20 68 0.0 0.0 0.00 0.00 0.00 50 1022.3
20260906174657 20 67 0.0 0.0 0.00 0.00 0.00 50 1022.3
20260906174141 20 360 0.0 0.0 0.00 0.00 0.00 50 1022.2
20260906173655 20 66 0.0 0.0 0.00 0.00 0.00 50 1022.2
20260906173149 20 65 0.0 0.0 0.00 0.00 0.00 50 1022.2
20260906172644 20 360 0.0 0.0 0.00 0.00 0.00 49 1022.2
20260906172154 20 65 1.6 0.0 0.00 0.00 0.00 49 1022.2
20260906171658 20 57 1.6 0.0 0.00 0.00 0.00 49 1022.2
20260906171202 21 360 1.6 0.0 0.00 0.00 0.00 49 1022.2
20260906170648 21 360 1.6 0.0 0.00 0.00 0.00 49 1022.2
20260906170203 21 67 0.0 0.0 0.00 0.00 0.00 49 1022.2
20260906165648 21 59 1.6 0.0 0.00 0.00 0.00 49 1022.3
20260906165153 21 57 0.0 0.0 0.00 0.00 0.00 49 1022.3
20260906164641 21 76 1.6 0.0 0.00 0.00 0.00 48 1022.3
20260906164200 21 76 1.6 0.0 0.00 0.00 0.00 48 1022.3
20260906163700 21 72 1.6 0.0 0.00 0.00 0.00 48 1022.3
20260906163146 22 82 1.6 0.0 0.00 0.00 0.00 48 1022.3
20260906162644 22 57 1.6 0.0 0.00 0.00 0.00 46 1022.3
20260906162146 22 55 1.6 0.0 0.00 0.00 0.00 46 1022.3
20260906161658 22 78 1.6 0.0 0.00 0.00 0.00 46 1022.3
20260906161146 22 62 0.0 0.0 0.00 0.00 0.00 46 1022.4
20260906160647 22 59 1.6 0.0 0.00 0.00 0.00 46 1022.4
20260906160157 22 82 1.6 0.0 0.00 0.00 0.00 45 1022.4
20260906155645 22 44 1.6 0.0 0.00 0.00 0.00 45 1023.3
20260906155147 23 360 1.6 0.0 0.00 0.00 0.00 45 1023.3
20260906154652 23 68 3.2 0.0 0.00 0.00 0.00 44 1023.3
20260906154159 23 70 3.2 0.0 0.00 0.00 0.00 45 1023.3
20260906153645 23 360 3.2 0.0 0.00 0.00 0.00 45 1023.3
20260906153149 23 360 3.2 0.0 0.00 0.00 0.00 44 1023.3
20260906152651 23 360 3.2 0.0 0.00 0.00 0.00 45 1023.0
20260906152157 23 48 3.2 0.0 0.00 0.00 0.00 45 1023.0
20260906151700 23 74 4.8 0.0 0.00 0.00 0.00 44 1023.0
20260906151144 23 51 3.2 0.0 0.00 0.00 0.00 44 1023.1
20260906150654 23 63 3.2 0.0 0.00 0.00 0.00 44 1023.1
20260906150154 23 60 3.2 0.0 0.00 0.00 0.00 45 1023.1
20260906145657 23 47 3.2 0.0 0.00 0.00 0.00 46 1023.3
20260906145157 23 68 1.6 0.0 0.00 0.00 0.00 44 1023.3
20260906144703 23 62 1.6 0.0 0.00 0.00 0.00 44 1023.3
20260906144151 23 65 1.6 0.0 0.00 0.00 0.00 45 1023.3
20260906143656 23 30 1.6 0.0 0.00 0.00 0.00 44 1023.3
20260906143201 23 360 1.6 0.0 0.00 0.00 0.00 45 1023.3
20260906142648 23 69 3.2 0.0 0.00 0.00 0.00 45 1023.4
20260906142156 23 99 3.2 0.0 0.00 0.00 0.00 45 1023.4
20260906141646 23 65 1.6 0.0 0.00 0.00 0.00 44 1023.4
20260906141147 23 98 1.6 0.0 0.00 0.00 0.00 45 1023.4
20260906140656 23 360 1.6 0.0 0.00 0.00 0.00 46 1023.4
20260906140145 23 14 3.2 0.0 0.00 0.00 0.00 47 1023.4
20260906135649 23 48 3.2 0.0 0.00 0.00 0.00 45 1023.4
20260906135152 23 104 1.6 0.0 0.00 0.00 0.00 45 1023.4
20260906134700 23 67 1.6 0.0 0.00 0.00 0.00 46 1023.4
20260906134152 23 118 3.2 0.0 0.00 0.00 0.00 47 1023.7
20260906133647 23 71 1.6 0.0 0.00 0.00 0.00 45 1023.7
20260906133149 22 75 1.6 0.0 0.00 0.00 0.00 48 1023.7
20260906132651 22 79 3.2 0.0 0.00 0.00 0.00 46 1023.8
20260906132159 22 360 1.6 0.0 0.00 0.00 0.00 47 1023.8
20260906131643 22 32 1.6 0.0 0.00 0.00 0.00 43 1023.8
20260906131148 22 360 1.6 0.0 0.00 0.00 0.00 44 1023.8
20260906130659 22 63 0.0 0.0 0.00 0.00 0.00 45 1023.8
20260906130156 22 14 1.6 0.0 0.00 0.00 0.00 45 1023.8
20260906125644 22 64 3.2 0.0 0.00 0.00 0.00 47 1023.8
20260906125151 22 98 3.2 0.0 0.00 0.00 0.00 45 1023.8
20260906124642 22 89 1.6 0.0 0.00 0.00 0.00 46 1023.8
20260906124151 22 36 1.6 0.0 0.00 0.00 0.00 46 1023.9
20260906123657 22 68 1.6 0.0 0.00 0.00 0.00 47 1023.9
20260906123202 22 30 1.6 0.0 0.00 0.00 0.00 48 1023.9
20260906122658 22 345 3.2 0.0 0.00 0.00 0.00 46 1024.1
20260906122158 22 67 1.6 0.0 0.00 0.00 0.00 48 1024.1
20260906121703 22 12 1.6 0.0 0.00 0.00 0.00 48 1024.1
20260906121146 22 71 1.6 0.0 0.00 0.00 0.00 49 1024.2
20260906120646 22 5 3.2 0.0 0.00 0.00 0.00 47 1024.2
20260906120148 22 101 3.2 0.0 0.00 0.00 0.00 46 1024.2
20260906115656 22 360 3.2 0.0 0.00 0.00 0.00 47 1024.2
20260906115155 22 64 1.6 0.0 0.00 0.00 0.00 50 1024.2
20260906114657 22 355 3.2 0.0 0.00 0.00 0.00 49 1024.2
20260906114149 22 360 3.2 0.0 0.00 0.00 0.00 49 1024.3
20260906113659 22 71 1.6 0.0 0.00 0.00 0.00 48 1024.3
20260906113202 22 94 1.6 0.0 0.00 0.00 0.00 49 1024.3
20260906112647 21 88 1.6 0.0 0.00 0.00 0.00 48 1024.5
20260906112156 21 87 1.6 0.0 0.00 0.00 0.00 48 1024.5
20260906111655 21 104 3.2 0.0 0.00 0.00 0.00 48 1024.5
20260906111153 21 40 3.2 0.0 0.00 0.00 0.00 50 1024.4
20260906110702 21 360 1.6 0.0 0.00 0.00 0.00 50 1024.4
20260906110145 21 43 1.6 0.0 0.00 0.00 0.00 51 1024.7
20260906105647 21 360 3.2 0.0 0.00 0.00 0.00 51 1024.7
20260906105156 21 45 3.2 0.0 0.00 0.00 0.00 51 1024.7
20260906104658 21 17 1.6 0.0 0.00 0.00 0.00 52 1024.7
20260906104201 21 5 1.6 0.0 0.00 0.00 0.00 51 1024.8
20260906103642 21 33 3.2 0.0 0.00 0.00 0.00 51 1024.8
20260906103153 21 47 1.6 0.0 0.00 0.00 0.00 54 1024.8
20260906102652 21 360 0.0 0.0 0.00 0.00 0.00 56 1024.9
20260906102155 21 48 1.6 0.0 0.00 0.00 0.00 55 1024.9
20260906101704 21 101 1.6 0.0 0.00 0.00 0.00 56 1024.9
20260906101151 21 74 1.6 0.0 0.00 0.00 0.00 55 1025.0
20260906100655 20 106 1.6 0.0 0.00 0.00 0.00 58 1025.0
20260906100145 20 91 1.6 0.0 0.00 0.00 0.00 56 1025.0
20260906095650 20 61 1.6 0.0 0.00 0.00 0.00 58 1025.4
20260906095156 20 69 1.6 0.0 0.00 0.00 0.00 57 1025.4
20260906094659 20 121 1.6 0.0 0.00 0.00 0.00 60 1025.4
20260906094147 20 74 1.6 0.0 0.00 0.00 0.00 60 1025.4
20260906093651 20 65 1.6 0.0 0.00 0.00 0.00 60 1025.4
20260906093154 20 63 3.2 0.0 0.00 0.00 0.00 60 1025.4
20260906092700 19 101 3.2 0.0 0.00 0.00 0.00 59 1025.5
20260906092202 19 107 1.6 0.0 0.00 0.00 0.00 61 1025.5
20260906091654 19 49 1.6 0.0 0.00 0.00 0.00 60 1025.5
20260906091202 18 55 0.0 0.0 0.00 0.00 0.00 63 1025.6
20260906090653 18 9 0.0 0.0 0.00 0.00 0.00 62 1025.6
20260906090153 18 94 1.6 0.0 0.00 0.00 0.00 60 1025.6
20260906085659 18 360 1.6 0.0 0.00 0.00 0.00 62 1025.5
20260906085150 18 36 1.6 0.0 0.00 0.00 0.00 63 1025.5
20260906084652 18 88 1.6 0.0 0.00 0.00 0.00 63 1025.5
20260906084153 17 360 1.6 0.0 0.00 0.00 0.00 64 1024.8
20260906083644 17 360 3.2 0.0 0.00 0.00 0.00 64 1024.8
20260906083151 17 87 1.6 0.0 0.00 0.00 0.00 66 1024.8
20260906082656 17 53 1.6 0.0 0.00 0.00 0.00 66 1024.7
20260906082159 17 67 1.6 0.0 0.00 0.00 0.00 66 1024.7
20260906081704 17 30 1.6 0.0 0.00 0.00 0.00 67 1024.7
20260906081200 17 82 3.2 0.0 0.00 0.00 0.00 65 1025.5
20260906080659 16 80 3.2 0.0 0.00 0.00 0.00 67 1025.5
20260906080201 16 360 4.8 0.0 0.00 0.00 0.00 68 1025.5
20260906075703 16 67 3.2 0.0 0.00 0.00 0.00 70 1024.7
20260906075147 16 39 1.6 0.0 0.00 0.00 0.00 73 1024.7
20260906074653 16 89 1.6 0.0 0.00 0.00 0.00 74 1024.7
20260906074204 16 40 1.6 0.0 0.00 0.00 0.00 73 1024.6
20260906073704 15 53 1.6 0.0 0.00 0.00 0.00 76 1024.6
20260906073148 15 46 0.0 0.0 0.00 0.00 0.00 78 1024.6
20260906072655 15 59 0.0 0.0 0.00 0.00 0.00 78 1024.8
20260906072154 15 64 0.0 0.0 0.00 0.00 0.00 80 1024.8
20260906071659 14 64 0.0 0.0 0.00 0.00 0.00 80 1024.8
20260906071200 14 82 0.0 0.0 0.00 0.00 0.00 83 1024.8
20260906070702 13 360 0.0 0.0 0.00 0.00 0.00 84 1024.8
20260906070159 13 80 0.0 0.0 0.00 0.00 0.00 86 1024.8
20260906065657 13 123 0.0 0.0 0.00 0.00 0.00 87 1025.0
20260906065145 13 181 0.0 0.0 0.00 0.00 0.00 87 1025.0
20260906064647 12 261 0.0 0.0 0.00 0.00 0.00 87 1025.0
20260906064150 12 261 0.0 0.0 0.00 0.00 0.00 87 1024.9
20260906063659 12 261 0.0 0.0 0.00 0.00 0.00 87 1024.9
20260906063204 12 261 0.0 0.0 0.00 0.00 0.00 87 1024.9
20260906062705 11 360 0.0 0.0 0.00 0.00 0.00 87 1024.9
20260906062146 11 261 0.0 0.0 0.00 0.00 0.00 87 1024.9
20260906061653 11 261 0.0 0.0 0.00 0.00 0.00 87 1024.9
20260906061152 11 261 0.0 0.0 0.00 0.00 0.00 86 1025.0
20260906060657 10 261 0.0 0.0 0.00 0.00 0.00 85 1025.0
20260906060202 9 261 0.0 0.0 0.00 0.00 0.00 85 1025.0
20260906055702 9 261 0.0 0.0 0.00 0.00 0.00 84 1025.3
20260906055158 9 261 0.0 0.0 0.00 0.00 0.00 84 1025.3
20260906054700 9 261 0.0 0.0 0.00 0.00 0.00 83 1025.3
20260906054151 8 261 0.0 0.0 0.00 0.00 0.00 83 1025.1
20260906053650 8 261 0.0 0.0 0.00 0.00 0.00 83 1025.1
20260906053153 8 261 0.0 0.0 0.00 0.00 0.00 83 1025.1
20260906052655 8 261 0.0 0.0 0.00 0.00 0.00 82 1025.2
20260906052154 8 261 0.0 0.0 0.00 0.00 0.00 82 1025.2
20260906051657 8 261 0.0 0.0 0.00 0.00 0.00 82 1025.2
20260906051148 9 261 0.0 0.0 0.00 0.00 0.00 82 1024.9
20260906050651 9 261 0.0 0.0 0.00 0.00 0.00 82 1024.9
20260906050156 9 261 0.0 0.0 0.00 0.00 0.00 82 1024.9
20260906045700 9 261 0.0 0.0 0.00 0.00 0.00 82 1024.9
20260906045149 9 261 0.0 0.0 0.00 0.00 0.00 82 1024.9
20260906044650 9 261 0.0 0.0 0.00 0.00 0.00 82 1024.9
20260906044150 9 261 0.0 0.0 0.00 0.00 0.00 82 1024.7
20260906043658 9 261 0.0 0.0 0.00 0.00 0.00 82 1024.7
20260906043203 9 261 0.0 0.0 0.00 0.00 0.00 82 1024.7
20260906042704 9 261 0.0 0.0 0.00 0.00 0.00 82 1024.6
20260906042144 9 261 0.0 0.0 0.00 0.00 0.00 82 1024.6
20260906041646 10 261 0.0 0.0 0.00 0.00 0.00 82 1024.6
20260906041148 10 261 0.0 0.0 0.00 0.00 0.00 82 1024.2
20260906040649 10 261 0.0 0.0 0.00 0.00 0.00 82 1024.2
20260906040154 10 261 0.0 0.0 0.00 0.00 0.00 82 1024.2
20260906035659 10 360 0.0 0.0 0.00 0.00 0.00 82 1024.2
20260906035148 10 261 0.0 0.0 0.00 0.00 0.00 82 1024.2
20260906034657 10 360 0.0 0.0 0.00 0.00 0.00 82 1024.2
20260906034142 10 261 0.0 0.0 0.00 0.00 0.00 82 1024.2
20260906033653 10 261 0.0 0.0 0.00 0.00 0.00 82 1024.2
20260906033158 10 261 0.0 0.0 0.00 0.00 0.00 82 1024.2
20260906032643 10 261 0.0 0.0 0.00 0.00 0.00 82 1024.2
20260906032151 10 261 0.0 0.0 0.00 0.00 0.00 82 1024.2
20260906031700 10 261 0.0 0.0 0.00 0.00 0.00 82 1024.2
20260906031158 10 360 0.0 0.0 0.00 0.00 0.00 82 1024.9
20260906030658 10 261 0.0 0.0 0.00 0.00 0.00 82 1024.9
20260906030201 10 261 0.0 0.0 0.00 0.00 0.00 81 1024.9
20260906025646 10 261 0.0 0.0 0.00 0.00 0.00 81 1023.9
20260906025145 10 261 0.0 0.0 0.00 0.00 0.00 81 1023.9
20260906024651 10 360 0.0 0.0 0.00 0.00 0.00 81 1023.9
20260906024154 11 360 0.0 0.0 0.00 0.00 0.00 81 1024.8
20260906023702 11 360 0.0 0.0 0.00 0.00 0.00 81 1024.8
20260906023203 11 261 0.0 0.0 0.00 0.00 0.00 81 1024.8
20260906022645 11 261 0.0 0.0 0.00 0.00 0.00 81 1024.8
20260906022152 11 261 0.0 0.0 0.00 0.00 0.00 81 1024.8
20260906021648 11 261 0.0 0.0 0.00 0.00 0.00 81 1024.8
20260906021200 11 261 0.0 0.0 0.00 0.00 0.00 81 1023.9
20260906020702 11 261 0.0 0.0 0.00 0.00 0.00 81 1023.9
20260906020151 11 261 0.0 0.0 0.00 0.00 0.00 81 1023.9
20260906015654 11 261 0.0 0.0 0.00 0.00 0.00 81 1024.0
20260906015156 11 261 0.0 0.0 0.00 0.00 0.00 81 1024.0
20260906014647 11 261 0.0 0.0 0.00 0.00 0.00 81 1024.0
20260906014152 11 360 0.0 0.0 0.00 0.00 0.00 81 1023.9
20260906013653 11 261 0.0 0.0 0.00 0.00 0.00 81 1023.9
20260906013158 11 261 0.0 0.0 0.00 0.00 0.00 81 1023.9
20260906012652 11 261 0.0 0.0 0.00 0.00 0.00 81 1023.6
20260906012146 11 360 0.0 0.0 0.00 0.00 0.00 81 1023.6
20260906011658 11 360 0.0 0.0 0.00 0.00 0.00 81 1023.6
20260906011147 11 261 0.0 0.0 0.00 0.00 0.00 81 1024.5
20260906010648 11 261 0.0 0.0 0.00 0.00 0.00 81 1024.5
20260906010154 11 261 0.0 0.0 0.00 0.00 0.00 81 1024.5
20260906005655 11 261 0.0 0.0 0.00 0.00 0.00 81 1024.6
20260906005200 11 261 0.0 0.0 0.00 0.00 0.00 81 1024.6
20260906004703 12 261 0.0 0.0 0.00 0.00 0.00 81 1024.6
20260906004154 12 261 0.0 0.0 0.00 0.00 0.00 81 1024.7
20260906003702 12 261 0.0 0.0 0.00 0.00 0.00 81 1024.7
20260906003147 12 261 0.0 0.0 0.00 0.00 0.00 81 1024.7
20260906002651 12 261 0.0 0.0 0.00 0.00 0.00 81 1024.7
20260906002155 12 261 0.0 0.0 0.00 0.00 0.00 80 1024.7
20260906001659 12 261 0.0 0.0 0.00 0.00 0.00 80 1024.7
20260906001148 12 261 0.0 0.0 0.00 0.00 0.00 80 1023.9
20260906000655 12 261 0.0 0.0 0.00 0.00 0.00 80 1023.9
20260906000149 12 261 0.0 0.0 0.00 0.00 0.00 80 1023.9
20260905235654 12 261 0.0 0.0 0.00 0.00 0.00 80 1023.8
20260905235156 12 261 0.0 0.0 0.00 0.00 0.00 80 1023.8
20260905234704 12 261 0.0 0.0 0.00 0.00 0.00 80 1023.8
20260905234146 12 261 0.0 0.0 0.00 0.00 0.00 80 1023.8
20260905233649 12 261 0.0 0.0 0.00 0.00 0.00 80 1023.8
20260905233157 12 261 0.0 0.0 0.00 0.00 0.00 80 1023.8
20260905232704 12 261 0.0 0.0 0.00 0.00 0.00 80 1023.7
20260905232150 12 261 0.0 0.0 0.00 0.00 0.00 80 1023.7
20260905231655 12 261 0.0 0.0 0.00 0.00 0.00 80 1023.7
20260905231147 12 261 0.0 0.0 0.00 0.00 0.00 80 1024.1
20260905230702 12 262 0.0 0.0 0.00 0.00 0.00 80 1024.1
20260905230154 13 261 0.0 0.0 0.00 0.00 0.00 80 1024.1
20260905225705 13 360 0.0 0.0 0.00 0.00 0.00 80 1024.2
20260905225205 13 261 0.0 0.0 0.00 0.00 0.00 80 1024.2
20260905224647 13 267 0.0 0.0 0.00 0.00 0.00 80 1024.2
20260905224152 13 261 0.0 0.0 0.00 0.00 0.00 80 1024.0
20260905223657 13 261 0.0 0.0 0.00 0.00 0.00 80 1024.0
20260905223204 13 261 0.0 0.0 0.00 0.00 0.00 80 1024.0
20260905222701 13 261 0.0 0.0 0.00 0.00 0.00 80 1023.8
20260905222150 13 261 0.0 0.0 0.00 0.00 0.00 79 1023.8
20260905221656 13 261 0.0 0.0 0.00 0.00 0.00 79 1023.8
20260905221155 13 261 0.0 0.0 0.00 0.00 0.00 79 1024.1
20260905220704 13 261 0.0 0.0 0.00 0.00 0.00 79 1024.1
20260905220205 13 261 0.0 0.0 0.00 0.00 0.36 79 1024.1
20260905215654 13 261 0.0 0.0 0.00 0.00 0.36 79 1023.9
20260905215158 13 261 0.0 0.0 0.00 0.00 0.36 79 1023.9
20260905214704 14 261 0.0 0.0 0.00 0.00 0.36 79 1023.9
20260905214204 14 261 0.0 0.0 0.00 0.00 0.36 79 1023.9
20260905213703 14 261 0.0 0.0 0.00 0.00 0.36 79 1023.9
20260905213151 14 261 0.0 0.0 0.00 0.00 0.36 78 1023.9
20260905212653 14 261 0.0 0.0 0.00 0.00 0.36 78 1023.8
20260905212152 15 261 0.0 0.0 0.00 0.00 0.36 78 1023.8
20260905211653 15 360 0.0 0.0 0.00 0.00 0.36 77 1023.8
20260905211156 15 261 0.0 0.0 0.00 0.00 0.36 77 1023.7
20260905210657 15 261 0.0 0.0 0.00 0.00 0.36 77 1023.7
20260905210145 15 261 0.0 0.0 0.00 0.00 0.36 76 1023.7
20260905205653 15 261 0.0 0.0 0.00 0.00 0.36 76 1023.5
20260905205155 15 261 0.0 0.0 0.00 0.00 0.36 76 1023.5
20260905204704 15 261 0.0 0.0 0.00 0.00 0.36 76 1023.5
20260905204152 15 261 0.0 0.0 0.00 0.00 0.36 76 1023.4
20260905203650 15 261 0.0 0.0 0.00 0.00 0.36 76 1023.4
20260905203155 16 261 0.0 0.0 0.00 0.00 0.36 76 1023.4
20260905202704 16 261 0.0 0.0 0.00 0.00 0.36 75 1023.3
20260905202155 16 261 0.0 0.0 0.00 0.00 0.36 75 1023.3
20260905201647 16 261 0.0 0.0 0.00 0.00 0.36 75 1023.3
20260905201153 16 261 0.0 0.0 0.00 0.00 0.36 75 1023.0
20260905200702 16 261 0.0 0.0 0.00 0.00 0.36 75 1023.0